TimeEDT,TemperatureF,Dew PointF,Humidity,Sea Level PressureIn,VisibilityMPH,Wind Direction,Wind SpeedMPH,Gust SpeedMPH,PrecipitationIn,Events,Conditions,WindDirDegrees,DateUTC
12:54 AM,30.0,25.0,82,29.80,10.0,Calm,Calm,-,N/A,,Partly Cloudy,0,2013-03-16 04:54:00
1:54 AM,30.9,25.0,79,29.80,10.0,Calm,Calm,-,N/A,,Clear,0,2013-03-16 05:54:00
2:54 AM,30.9,27.0,85,29.80,10.0,Calm,Calm,-,N/A,,Partly Cloudy,0,2013-03-16 06:54:00
3:54 AM,28.9,26.1,89,29.81,10.0,Calm,Calm,-,N/A,,Clear,0,2013-03-16 07:54:00
4:54 AM,33.1,28.9,85,29.81,10.0,Calm,Calm,-,N/A,,Overcast,0,2013-03-16 08:54:00
5:54 AM,36.0,30.0,79,29.81,10.0,North,3.5,-,N/A,,Overcast,10,2013-03-16 09:54:00
6:54 AM,39.9,30.9,70,29.82,10.0,ENE,5.8,-,N/A,,Overcast,60,2013-03-16 10:54:00
7:54 AM,39.9,30.9,70,29.84,10.0,ESE,5.8,-,N/A,,Overcast,110,2013-03-16 11:54:00
8:54 AM,41.0,30.0,65,29.84,10.0,East,5.8,-,N/A,,Overcast,90,2013-03-16 12:54:00
9:54 AM,41.0,30.0,65,29.85,10.0,East,6.9,-,N/A,,Overcast,90,2013-03-16 13:54:00
10:54 AM,42.1,28.0,58,29.83,10.0,East,10.4,-,N/A,,Overcast,90,2013-03-16 14:54:00
11:54 AM,43.0,26.1,51,29.82,10.0,ESE,9.2,-,N/A,,Overcast,120,2013-03-16 15:54:00
12:54 PM,44.1,26.1,49,29.79,10.0,East,11.5,-,N/A,,Overcast,90,2013-03-16 16:54:00
1:54 PM,45.0,28.9,53,29.76,10.0,East,11.5,-,N/A,,Mostly Cloudy,90,2013-03-16 17:54:00
2:54 PM,44.1,28.0,53,29.72,10.0,East,12.7,-,N/A,,Overcast,100,2013-03-16 18:54:00
3:54 PM,43.0,30.0,60,29.72,10.0,East,11.5,-,N/A,,Overcast,80,2013-03-16 19:54:00
4:54 PM,39.9,33.1,77,29.75,10.0,ENE,10.4,-,0.00,,Overcast,70,2013-03-16 20:54:00
5:54 PM,39.0,30.9,73,29.73,10.0,ENE,12.7,-,0.00,,Overcast,70,2013-03-16 21:54:00
6:52 PM,37.4,32.0,81,29.75,10.0,NE,11.5,-,0.00,Rain,Light Rain,50,2013-03-16 22:52:00
6:54 PM,37.0,32.0,82,29.75,10.0,NE,11.5,-,0.00,Rain,Light Rain,50,2013-03-16 22:54:00
7:54 PM,36.0,34.0,93,29.79,9.0,NE,6.9,-,0.00,,Overcast,40,2013-03-16 23:54:00
8:54 PM,36.0,33.1,89,29.82,10.0,ENE,6.9,-,N/A,,Overcast,60,2013-03-17 00:54:00
9:29 PM,35.6,33.8,93,29.84,10.0,NE,6.9,-,N/A,,Overcast,40,2013-03-17 01:29:00
9:54 PM,36.0,33.1,89,29.87,10.0,North,9.2,-,N/A,,Overcast,10,2013-03-17 01:54:00
10:54 PM,36.0,33.1,89,29.90,10.0,North,6.9,-,N/A,,Overcast,360,2013-03-17 02:54:00
11:54 PM,35.1,32.0,89,29.92,10.0,North,9.2,-,N/A,,Overcast,360,2013-03-17 03:54:00